Theta_e
309 309 309 309 308 308 308 309 310 311 312 314 311 308 306 306 306 315 318 318 320 320 319 319 327 328 328 332 352 348 357 359 359 357 353 355 351 349 349 350 345 345 344 349 347
309 309 309 309 309 309 308 309 310 311 311 312 311 309 306 306 314 320 320 321 319 318 315 317 323 329 328 339 353 356 360 360 354 355 354 354 355 353 351 351 348 346 343 349 348
309 309 309 309 309 310 311 311 311 311 311 312 312 308 307 310 326 328 321 322 319 316 314 319 325 327 327 333 351 356 353 352 354 348 346 356 356 351 348 352 347 346 342 346 346
309 309 309 309 310 310 311 312 312 312 312 312 313 308 308 319 335 330 325 321 318 315 320 325 325 324 328 334 348 360 354 352 354 353 354 355 353 353 349 350 345 342 341 341 342
309 309 308 309 309 311 312 313 314 314 313 312 313 308 320 329 329 330 321 318 314 313 323 326 323 325 329 339 352 355 347 350 351 348 351 351 354 352 349 347 346 342 342 342 341
308 308 308 308 309 310 312 313 315 315 313 314 311 312 323 332 327 329 324 317 317 320 322 323 322 325 329 345 350 346 350 350 348 351 351 353 351 353 350 347 347 344 341 343 342
308 308 308 308 309 311 312 315 316 319 315 314 310 321 328 333 324 325 323 318 319 320 320 322 324 325 327 339 348 350 356 353 353 354 351 347 350 355 348 349 347 348 341 343 341
307 308 308 308 309 311 313 316 318 320 317 315 314 325 332 326 326 324 322 321 320 319 319 320 322 323 326 335 343 358 358 360 356 354 351 350 353 349 347 348 350 346 345 344 344
307 307 307 308 309 311 313 317 320 321 319 320 324 326 333 323 321 324 325 324 320 319 319 321 321 321 324 327 340 349 362 355 352 355 352 349 352 347 345 347 348 348 346 346 344
309 308 307 307 309 311 314 318 323 320 327 325 326 329 330 325 323 324 325 323 321 318 318 319 318 320 323 326 340 349 357 348 355 358 352 353 351 345 341 344 347 347 348 344 345
312 310 308 307 309 310 314 320 328 329 328 330 330 329 324 321 321 322 324 321 319 320 317 318 317 321 324 326 342 346 350 349 348 355 354 354 350 343 340 345 345 348 349 347 346
314 313 309 308 309 310 312 323 326 325 326 330 328 325 323 322 322 323 322 321 318 317 317 318 316 321 324 334 344 348 353 356 344 349 350 349 352 347 343 344 345 347 350 349 350
312 313 312 308 310 314 318 326 327 326 326 329 325 325 325 324 323 321 320 319 319 319 318 319 321 323 325 331 343 349 344 345 344 342 353 352 357 353 350 344 343 345 347 349 348
313 312 313 308 314 318 322 327 326 325 328 331 325 325 325 325 323 323 324 323 321 321 322 322 327 328 328 330 329 337 345 345 343 357 357 354 359 357 352 351 348 347 346 349 348
315 314 312 310 308 315 324 324 325 325 335 329 326 325 325 324 321 322 324 323 323 324 325 323 327 328 328 329 328 329 338 338 341 341 345 357 349 358 351 352 350 347 344 347 346
317 316 313 314 318 319 321 324 325 327 334 325 325 325 324 323 323 323 322 322 323 324 325 323 325 325 325 327 327 328 329 333 332 335 338 343 345 360 354 351 347 347 344 348 346
318 318 314 312 317 321 321 324 327 330 328 326 325 325 326 323 324 323 323 321 322 324 323 322 322 323 325 324 326 325 323 326 332 347 348 341 345 344 351 348 344 346 344 342 343
318 318 313 310 309 315 322 325 331 332 332 325 324 325 325 326 325 325 325 323 322 323 323 328 329 322 323 323 323 325 322 323 341 347 348 344 349 352 349 348 348 345 342 342 344
318 316 318 317 311 313 322 329 330 332 326 324 323 325 326 326 326 327 325 327 327 325 326 329 327 324 323 326 323 324 332 331 339 343 345 345 348 345 349 347 349 349 347 344 344
317 317 316 322 319 318 323 327 328 327 327 322 322 326 330 328 326 325 328 328 328 327 325 326 328 328 328 328 327 327 330 330 334 347 351 350 353 353 350 346 343 344 346 344 342
318 320 322 321 320 322 326 327 326 326 326 323 322 323 325 331 329 329 331 330 328 327 325 326 327 328 329 327 326 327 330 330 336 339 348 354 354 345 343 343 344 345 344 344 344
320 322 323 322 323 324 325 326 323 326 325 323 323 322 324 326 329 327 330 331 327 324 326 327 326 328 329 328 329 329 332 328 329 345 346 343 342 342 340 342 345 345 344 342 345
321 322 322 324 325 324 323 324 325 326 328 323 321 323 323 325 327 328 330 328 327 328 328 325 328 325 328 326 330 332 331 330 331 335 344 339 336 341 338 342 343 344 343 351 351
320 325 323 327 326 326 325 323 325 327 328 325 324 324 325 325 325 327 329 328 325 326 328 323 321 321 321 325 325 329 329 330 331 334 341 338 338 338 340 341 339 341 342 344 348
322 325 326 327 328 328 327 325 324 325 328 325 326 325 325 325 327 327 326 326 326 333 323 318 320 325 324 323 323 323 323 323 324 331 332 334 337 340 341 339 344 343 342 343 342
322 328 326 326 325 326 328 325 324 325 331 326 326 325 325 326 327 330 328 327 327 325 326 322 323 328 328 326 323 323 324 322 319 321 330 334 344 346 341 339 341 336 331 344 339
320 323 326 326 326 325 324 327 325 324 326 328 326 325 326 326 324 322 321 321 321 326 327 328 328 328 328 326 326 323 324 326 329 331 332 341 342 339 339 338 339 338 338 348 350
Wind_Speed
13 13 14 14 14 14 13 12 12 12 12 10 10 10 10 12 12 7 6 7 7 11 10 10 13 23 24 10 13 4 2 2 7 7 5 7 9 3 8 16 11 8 13 35 38
13 13 14 15 15 15 15 15 14 13 12 11 10 10 10 12 10 11 10 11 9 10 9 12 13 13 8 4 3 5 3 7 5 5 5 13 5 9 9 11 17 18 17 37 32
13 14 15 16 17 16 16 16 15 13 12 11 10 9 8 8 4 3 13 14 13 10 11 14 21 16 11 9 7 6 5 6 12 18 17 7 8 6 4 12 18 20 15 31 29
14 15 16 17 18 18 17 17 16 16 13 11 8 7 7 2 3 4 3 9 11 9 6 12 10 8 7 7 7 10 26 1 14 9 4 5 10 6 12 6 19 18 13 8 11
14 15 17 18 18 19 20 20 19 16 11 8 6 5 2 3 8 1 2 5 7 6 8 12 11 9 9 4 7 11 14 8 10 10 10 9 2 6 12 14 7 15 11 9 6
15 17 18 18 20 21 22 22 21 13 7 5 3 4 1 5 4 4 4 5 6 9 13 18 10 12 9 5 10 8 14 4 6 12 5 3 3 3 11 5 9 11 8 10 4
17 19 18 19 21 22 22 22 16 11 6 2 1 2 5 10 1 1 7 6 7 16 11 20 18 7 10 4 14 16 10 3 9 5 3 4 5 5 9 13 11 11 11 12 7
18 19 19 20 22 22 21 20 13 9 5 3 1 1 6 4 4 5 12 15 12 13 15 18 16 7 4 4 8 7 5 5 6 2 3 3 5 5 6 11 9 12 11 7 6
20 19 19 21 22 23 20 18 11 9 7 6 2 3 7 6 4 12 10 10 12 8 14 12 6 3 7 6 1 4 6 6 3 4 4 3 1 10 4 8 9 12 9 8 2
20 20 20 21 22 24 21 19 13 9 5 4 8 6 7 3 7 9 3 5 4 7 6 5 3 4 5 3 5 7 8 5 5 6 4 5 5 6 9 1 1 7 6 4 9
20 21 21 21 21 24 24 7 1 0 6 9 7 6 6 7 3 5 8 11 7 4 6 7 3 7 14 11 3 11 10 6 6 5 3 9 5 13 11 3 4 2 3 1 9
22 22 22 22 21 23 18 3 7 8 7 14 13 4 4 17 7 7 8 5 5 7 9 3 8 14 14 7 13 14 12 5 4 6 6 6 7 10 7 4 6 6 5 0 4
23 23 24 22 21 17 12 17 14 16 3 11 9 7 4 6 5 8 7 6 8 8 9 9 10 16 14 2 10 15 10 7 7 4 9 8 3 7 7 12 16 14 8 9 7
24 24 25 25 12 13 10 9 10 13 3 6 7 5 6 9 3 12 15 9 6 9 6 7 6 2 7 7 7 6 20 18 14 10 5 18 3 10 12 11 12 11 13 13 11
26 26 24 22 19 7 13 18 19 12 4 14 4 8 3 4 9 6 8 7 9 11 2 7 1 5 4 8 8 5 8 4 8 10 5 18 4 4 10 12 17 19 15 14 12
27 27 26 9 13 18 23 23 18 1 6 6 7 8 9 8 8 5 4 4 8 8 3 8 4 2 6 9 7 7 6 3 2 1 2 5 6 4 9 19 13 15 15 15 12
30 30 26 15 7 7 21 8 3 4 4 8 7 7 9 8 8 8 8 8 5 1 6 9 11 4 4 6 5 4 5 4 5 5 2 8 8 7 18 11 15 15 17 13 13
35 30 20 22 20 12 15 3 5 9 12 6 1 2 8 8 8 8 6 7 10 5 6 5 2 8 6 5 5 5 7 5 4 2 2 6 4 3 10 13 10 13 16 14 13
35 15 8 18 14 11 2 4 5 3 10 4 7 2 6 6 1 2 8 4 4 7 5 5 8 7 10 5 7 7 3 1 5 2 1 2 7 2 19 20 7 9 13 17 16
22 9 18 19 13 11 3 6 8 15 18 7 6 5 1 5 6 6 5 6 4 5 4 6 5 7 2 5 5 4 1 5 4 3 1 8 4 4 9 14 17 14 10 16 16
7 4 13 18 24 3 5 6 13 18 9 1 7 9 9 2 5 1 4 5 4 6 7 4 2 9 6 4 7 2 2 3 6 3 4 3 5 7 7 8 13 16 10 13 14
7 4 14 21 3 4 9 11 15 23 6 1 4 6 8 8 4 1 3 5 8 8 4 7 3 5 8 7 8 7 0 1 4 5 3 3 5 9 9 11 4 12 14 8 7
4 4 17 17 5 7 8 20 21 22 14 7 5 6 6 7 5 6 7 9 8 6 2 5 4 4 9 7 7 3 6 5 7 4 6 5 4 4 5 9 2 14 13 4 3
3 4 4 4 7 11 12 15 19 20 13 3 5 5 2 1 5 4 5 7 9 6 7 4 2 4 4 7 5 5 8 8 2 2 5 5 3 3 5 6 5 8 13 13 3
3 4 10 4 5 10 13 15 17 19 7 6 3 6 3 3 6 6 6 5 8 8 4 3 2 5 7 9 10 9 10 11 8 6 6 4 7 2 5 5 2 6 15 25 4
3 5 8 11 10 13 7 13 16 18 10 9 7 8 6 4 4 5 5 4 6 6 7 4 3 4 5 8 9 10 9 9 10 8 6 7 6 2 4 8 14 12 25 23 6
10 8 4 7 9 9 8 13 13 13 13 14 11 8 7 7 7 8 7 5 5 1 5 3 3 3 4 9 11 7 9 8 6 10 7 3 6 9 5 5 11 21 22 7 6
Wind_Direction
11 8 4 359 354 349 346 344 343 343 338 333 321 314 312 310 304 287 248 241 227 267 284 273 258 241 241 221 143 128 90 207 160 143 240 234 100 169 73 88 152 114 134 129 135
4 2 359 355 350 346 342 339 336 336 331 328 319 312 322 328 322 256 231 244 250 272 285 258 271 254 236 196 134 156 154 193 169 106 45 308 2 184 141 152 115 126 122 124 136
358 357 354 351 347 343 338 335 333 331 327 319 317 321 330 345 288 238 218 235 247 266 260 276 285 284 296 275 188 177 179 179 116 123 129 291 1 318 118 129 149 145 147 139 148
353 350 348 346 344 342 338 334 330 326 321 311 313 327 334 30 46 184 220 228 239 245 257 281 277 272 271 265 41 83 32 93 138 148 159 68 326 3 51 57 139 137 145 152 135
348 346 344 344 343 341 338 334 330 324 314 304 312 325 16 239 246 62 231 205 216 211 243 261 273 267 276 280 89 103 109 310 126 125 99 145 276 8 66 94 289 134 147 148 141
345 342 343 343 340 339 338 336 332 333 328 309 321 357 302 273 53 46 112 176 191 205 253 257 264 288 294 37 74 169 120 250 151 93 56 78 347 13 7 2 196 134 137 100 108
341 340 340 341 338 337 337 336 331 329 329 328 75 31 265 257 7 168 197 214 210 222 248 278 283 316 345 17 135 125 94 239 116 74 68 331 357 83 26 32 150 203 144 156 136
339 338 338 338 335 334 335 334 327 321 330 323 318 113 259 220 278 238 226 226 240 256 270 298 348 353 293 301 128 84 84 129 332 330 314 336 199 289 41 48 1 213 100 106 70
337 336 335 334 332 329 333 331 317 312 319 319 334 210 270 184 217 247 234 244 194 233 271 285 357 265 305 282 144 152 121 113 264 244 145 78 247 268 61 41 17 9 96 91 63
338 335 333 332 328 326 330 324 301 292 303 276 268 304 253 264 192 228 234 306 246 212 243 247 249 242 291 237 197 182 129 119 169 166 167 151 215 263 265 194 332 345 336 147 172
339 336 332 328 325 324 329 331 352 276 237 222 194 225 120 100 139 254 204 227 252 207 222 219 178 237 243 246 144 91 112 135 32 142 122 201 174 216 224 190 218 246 102 157 263
340 336 331 326 319 315 314 249 311 286 304 228 253 213 280 177 171 179 199 236 192 228 230 246 224 244 257 200 122 122 119 114 8 309 186 149 204 232 229 252 269 226 154 99 344
341 337 331 325 315 304 273 262 306 341 286 294 221 154 149 237 202 177 190 231 224 239 241 209 244 233 249 204 149 147 145 202 167 214 236 171 197 215 239 215 214 224 179 155 213
340 336 333 328 312 321 280 285 310 331 303 232 197 160 204 218 133 160 212 228 247 240 224 254 299 86 10 334 349 140 180 184 166 165 206 190 240 217 216 228 240 233 188 178 188
338 335 328 323 298 302 290 339 326 311 294 162 115 157 171 214 143 202 240 317 282 305 358 252 167 136 287 277 254 256 198 187 188 189 169 202 268 244 192 223 219 229 215 181 179
333 332 323 319 299 268 313 304 302 275 240 138 140 193 208 220 159 140 196 235 258 285 196 269 294 351 245 248 271 318 355 313 345 212 345 354 68 258 180 223 222 213 211 172 177
328 324 308 277 238 310 330 315 306 223 272 144 171 176 208 170 147 176 195 225 220 211 255 248 238 186 278 332 353 354 9 333 347 37 245 357 27 280 228 221 207 188 196 191 173
325 319 290 262 261 283 314 326 254 267 273 103 41 124 266 172 160 183 208 222 235 238 279 261 252 152 187 208 252 257 183 173 208 161 261 22 205 336 298 226 203 187 178 178 177
327 322 269 268 234 232 315 245 239 229 335 58 164 206 269 131 289 219 229 208 84 54 20 352 15 169 161 174 164 278 338 167 115 1 82 156 317 92 23 17 22 117 161 189 192
327 294 251 245 192 187 217 247 275 299 295 29 320 233 321 149 183 220 213 47 77 70 22 311 343 295 172 103 285 258 236 29 12 114 335 1 303 283 8 359 340 321 185 190 206
316 274 254 196 169 172 224 240 265 270 264 201 307 315 319 121 242 318 151 102 112 74 36 335 351 298 340 172 225 296 139 89 99 96 160 161 215 153 125 50 283 281 275 203 213
311 287 134 152 165 208 238 251 266 276 248 137 308 303 306 329 335 174 76 86 60 53 19 7 284 304 286 320 8 117 264 10 138 213 238 190 271 172 189 137 207 285 299 253 233
311 277 297 172 215 235 244 246 259 270 260 166 213 223 284 7 4 347 107 121 92 78 90 351 340 348 333 345 22 19 334 315 113 121 179 143 272 190 289 77 30 263 275 345 342
286 292 247 195 230 250 260 253 250 253 253 224 196 270 149 298 296 312 353 129 120 116 124 99 265 215 236 271 321 320 309 302 249 162 161 206 214 174 87 87 22 12 356 312 36
240 268 3 297 273 265 238 268 277 285 207 225 309 258 165 252 275 210 228 133 130 149 129 131 243 289 327 338 328 317 315 310 308 236 152 212 178 135 123 112 148 76 335 302 307
284 346 340 296 301 314 281 237 257 274 284 196 185 252 223 221 252 314 56 57 137 224 178 184 255 291 295 295 312 319 308 279 261 290 220 180 95 70 118 106 89 45 310 285 293
348 332 313 290 306 307 298 310 241 262 283 297 181 203 241 220 217 99 75 43 331 138 211 155 84 46 331 328 327 326 281 328 17 34 28 110 147 152 154 163 154 176 209 231 329